Time,TemperatureF,DewpointF,PressureIn,WindDirection,WindDirectionDegrees,WindSpeedMPH,WindSpeedGustMPH,Humidity,HourlyPrecipIn,Conditions,Clouds,dailyrainin,SoftwareType,DateUTC
2013-03-31 00:01:00,30.6,17.1,29.26,ENE,68,0.0,0.0,53,-99.99,,,-99.99,WSDL version 420,2013-03-31 04:01:00,
2013-03-31 00:06:00,30.4,17.0,29.26,ENE,68,0.0,0.0,53,-99.99,,,-99.99,WSDL version 420,2013-03-31 04:06:00,
2013-03-31 00:12:00,30.4,17.1,29.26,ENE,68,0.0,0.0,54,-99.99,,,-99.99,WSDL version 420,2013-03-31 04:12:00,
2013-03-31 00:18:00,30.6,17.4,29.26,ENE,68,0.4,1.3,53,-99.99,,,-99.99,WSDL version 420,2013-03-31 04:18:00,
2013-03-31 00:24:00,30.9,17.9,29.26,East,90,0.2,2.0,54,-99.99,,,-99.99,WSDL version 420,2013-03-31 04:24:00,
2013-03-31 00:30:00,30.9,17.9,29.23,ESE,113,0.9,2.0,54,-99.99,,,-99.99,WSDL version 420,2013-03-31 04:30:00,
2013-03-31 00:39:00,31.1,18.8,29.23,ESE,113,0.0,1.1,56,-99.99,,,-99.99,WSDL version 420,2013-03-31 04:39:00,
2013-03-31 00:45:00,31.1,18.8,29.23,ESE,113,0.0,2.0,56,-99.99,,,-99.99,WSDL version 420,2013-03-31 04:45:00,
2013-03-31 00:50:00,31.2,19.1,-100.00,ESE,113,0.0,2.0,57,-99.99,,,-99.99,WSDL version 420,2013-03-31 04:50:00,
2013-03-31 00:57:00,31.3,19.3,29.23,ESE,113,0.0,1.1,57,-99.99,,,-99.99,WSDL version 420,2013-03-31 04:57:00,
2013-03-31 01:02:00,31.1,19.2,29.23,ESE,115,0.0,2.2,57,-99.99,,,-99.99,WSDL version 420,2013-03-31 05:02:00,
2013-03-31 01:09:00,31.1,19.5,29.23,SE,135,0.0,2.2,58,-99.99,,,-99.99,WSDL version 420,2013-03-31 05:09:00,
2013-03-31 01:14:00,30.9,19.1,-100.00,SE,135,0.4,1.6,57,-99.99,,,-99.99,WSDL version 420,2013-03-31 05:14:00,
2013-03-31 01:21:00,30.9,19.3,29.23,SSE,158,0.0,1.6,58,-99.99,,,-99.99,WSDL version 420,2013-03-31 05:21:00,
2013-03-31 01:27:00,30.7,19.2,29.23,SSE,158,0.0,0.0,58,-99.99,,,-99.99,WSDL version 420,2013-03-31 05:27:00,
2013-03-31 01:34:00,30.7,19.2,29.23,SSE,158,0.0,0.0,58,-99.99,,,-99.99,WSDL version 420,2013-03-31 05:34:00,
2013-03-31 01:41:00,30.6,19.0,29.23,SSE,158,0.0,0.0,58,-99.99,,,-99.99,WSDL version 420,2013-03-31 05:41:00,
2013-03-31 01:47:00,30.4,18.8,29.23,SSE,158,0.0,1.3,58,-99.99,,,-99.99,WSDL version 420,2013-03-31 05:47:00,
2013-03-31 01:54:00,30.3,19.1,29.23,SSE,158,0.0,1.3,59,-99.99,,,-99.99,WSDL version 420,2013-03-31 05:54:00,
2013-03-31 02:00:00,30.2,19.0,29.21,SSE,158,0.0,0.9,59,-99.99,,,-99.99,WSDL version 420,2013-03-31 06:00:00,
2013-03-31 02:06:00,30.2,19.1,29.21,SSE,158,0.0,0.9,60,-99.99,,,-99.99,WSDL version 420,2013-03-31 06:06:00,
2013-03-31 02:12:00,30.0,19.2,29.21,SSE,158,0.0,0.0,60,-99.99,,,-99.99,WSDL version 420,2013-03-31 06:12:00,
2013-03-31 02:18:00,30.0,19.2,29.21,SSE,158,0.7,1.3,60,-99.99,,,-99.99,WSDL version 420,2013-03-31 06:18:00,
2013-03-31 02:23:00,30.0,19.2,-100.00,SSE,158,0.0,1.3,60,-99.99,,,-99.99,WSDL version 420,2013-03-31 06:23:00,
2013-03-31 02:31:00,30.0,19.2,29.18,SSE,158,0.0,1.1,60,-99.99,,,-99.99,WSDL version 420,2013-03-31 06:31:00,
2013-03-31 02:37:00,30.0,19.5,29.18,SE,135,0.0,1.1,61,-99.99,,,-99.99,WSDL version 420,2013-03-31 06:37:00,
2013-03-31 02:45:00,29.8,19.2,29.21,ESE,113,0.0,1.6,60,-99.99,,,-99.99,WSDL version 420,2013-03-31 06:45:00,
2013-03-31 02:51:00,29.8,19.4,-100.00,ESE,113,0.0,1.1,61,-99.99,,,-99.99,WSDL version 420,2013-03-31 06:51:00,
2013-03-31 02:57:00,29.8,19.5,29.21,ESE,113,0.0,0.9,61,-99.99,,,-99.99,WSDL version 420,2013-03-31 06:57:00,
2013-03-31 03:03:00,29.8,19.7,29.21,ESE,113,0.0,0.9,62,-99.99,,,-99.99,WSDL version 420,2013-03-31 07:03:00,
2013-03-31 03:09:00,30.1,20.0,29.21,ESE,113,0.0,1.3,62,-99.99,,,-99.99,WSDL version 420,2013-03-31 07:09:00,
2013-03-31 03:15:00,30.3,20.1,29.18,SE,135,0.5,2.2,62,-99.99,,,-99.99,WSDL version 420,2013-03-31 07:15:00,
2013-03-31 03:23:00,30.4,20.2,29.18,SSE,158,0.4,2.2,62,-99.99,,,-99.99,WSDL version 420,2013-03-31 07:23:00,
2013-03-31 03:30:00,30.4,20.2,29.18,SSE,158,0.0,1.3,62,-99.99,,,-99.99,WSDL version 420,2013-03-31 07:30:00,
2013-03-31 03:36:00,30.4,20.2,29.18,SSE,158,0.0,1.3,62,-99.99,,,-99.99,WSDL version 420,2013-03-31 07:36:00,
2013-03-31 03:42:00,30.6,20.7,29.18,SSE,158,0.0,1.1,63,-99.99,,,-99.99,WSDL version 420,2013-03-31 07:42:00,
2013-03-31 03:48:00,30.6,20.7,29.18,SSE,158,0.0,1.3,63,-99.99,,,-99.99,WSDL version 420,2013-03-31 07:48:00,
2013-03-31 03:53:00,30.6,20.7,29.18,SSE,158,0.0,1.3,63,-99.99,,,-99.99,WSDL version 420,2013-03-31 07:53:00,
2013-03-31 04:00:00,30.7,21.1,-100.00,SSW,203,0.0,2.7,64,-99.99,,,-99.99,WSDL version 420,2013-03-31 08:00:00,
2013-03-31 04:07:00,30.9,21.4,-100.00,SSW,203,0.0,1.6,64,-99.99,,,-99.99,WSDL version 420,2013-03-31 08:07:00,
2013-03-31 04:12:00,30.7,21.2,29.15,SSW,203,0.2,2.9,64,-99.99,,,-99.99,WSDL version 420,2013-03-31 08:12:00,
2013-03-31 04:18:00,30.7,21.2,29.15,SSW,203,0.0,2.9,64,-99.99,,,-99.99,WSDL version 420,2013-03-31 08:18:00,
2013-03-31 04:24:00,30.7,21.2,29.15,SSW,203,0.0,0.0,64,-99.99,,,-99.99,WSDL version 420,2013-03-31 08:24:00,
2013-03-31 04:29:00,30.7,21.2,29.15,SSW,203,0.0,0.0,64,-99.99,,,-99.99,WSDL version 420,2013-03-31 08:29:00,
2013-03-31 04:35:00,30.7,21.2,29.15,SSW,203,0.0,0.0,64,-99.99,,,-99.99,WSDL version 420,2013-03-31 08:35:00,
2013-03-31 04:41:00,30.7,21.2,29.15,SSW,203,0.0,1.1,63,-99.99,,,-99.99,WSDL version 420,2013-03-31 08:41:00,
2013-03-31 04:48:00,30.7,21.1,29.15,SSW,203,0.0,1.1,64,-99.99,,,-99.99,WSDL version 420,2013-03-31 08:48:00,
2013-03-31 04:53:00,30.9,21.2,29.15,SSW,203,0.0,1.1,64,-99.99,,,-99.99,WSDL version 420,2013-03-31 08:53:00,
2013-03-31 04:59:00,30.7,20.9,29.15,SSW,203,0.2,1.1,63,-99.99,,,-99.99,WSDL version 420,2013-03-31 08:59:00,
2013-03-31 05:05:00,30.7,21.1,29.15,SSW,203,0.0,1.1,64,-99.99,,,-99.99,WSDL version 420,2013-03-31 09:05:00,
2013-03-31 05:11:00,30.7,21.2,29.15,SSW,203,0.0,1.3,64,-99.99,,,-99.99,WSDL version 420,2013-03-31 09:11:00,
2013-03-31 05:17:00,30.7,21.2,29.15,SSW,203,0.0,0.0,64,-99.99,,,-99.99,WSDL version 420,2013-03-31 09:17:00,
2013-03-31 05:24:00,30.4,20.9,29.15,SSW,203,0.0,0.0,64,-99.99,,,-99.99,WSDL version 420,2013-03-31 09:24:00,
2013-03-31 05:30:00,30.4,20.9,29.15,SSW,203,0.0,0.0,64,-99.99,,,-99.99,WSDL version 420,2013-03-31 09:30:00,
2013-03-31 05:41:00,30.2,21.0,29.15,SSW,203,0.0,0.0,65,-99.99,,,-99.99,WSDL version 420,2013-03-31 09:41:00,
2013-03-31 05:47:00,30.3,21.1,29.12,SSW,203,0.0,0.0,65,-99.99,,,-99.99,WSDL version 420,2013-03-31 09:47:00,
2013-03-31 05:53:00,30.5,21.3,29.12,SSW,203,0.0,2.0,65,-99.99,,,-99.99,WSDL version 420,2013-03-31 09:53:00,
2013-03-31 06:00:00,30.7,21.5,29.12,SSW,203,0.7,1.3,65,-99.99,,,-99.99,WSDL version 420,2013-03-31 10:00:00,
2013-03-31 06:06:00,30.9,22.0,29.12,WSW,248,0.0,2.7,66,-99.99,,,-99.99,WSDL version 420,2013-03-31 10:06:00,
2013-03-31 06:14:00,31.0,22.2,29.12,WSW,248,0.0,0.0,66,-99.99,,,-99.99,WSDL version 420,2013-03-31 10:14:00,
2013-03-31 06:20:00,31.1,22.2,29.12,WSW,240,0.0,0.0,66,-99.99,,,-99.99,WSDL version 420,2013-03-31 10:20:00,
2013-03-31 06:26:00,31.3,22.4,29.12,SW,225,0.0,0.0,66,-99.99,,,-99.99,WSDL version 420,2013-03-31 10:26:00,
2013-03-31 06:34:00,31.3,22.7,29.09,SW,225,0.0,0.0,67,-99.99,,,-99.99,WSDL version 420,2013-03-31 10:34:00,
2013-03-31 06:39:00,31.5,22.9,29.09,SW,225,0.0,0.0,67,-99.99,,,-99.99,WSDL version 420,2013-03-31 10:39:00,
2013-03-31 06:45:00,31.5,22.9,29.09,SW,225,0.0,0.0,67,-99.99,,,-99.99,WSDL version 420,2013-03-31 10:45:00,
2013-03-31 06:54:00,31.8,23.2,29.09,SW,225,0.0,0.0,67,-99.99,,,-99.99,WSDL version 420,2013-03-31 10:54:00,
2013-03-31 06:59:00,32.0,23.4,29.09,SW,225,0.0,1.1,67,-99.99,,,-99.99,WSDL version 420,2013-03-31 10:59:00,
2013-03-31 07:05:00,32.1,23.1,-100.00,SW,225,0.0,1.1,67,-99.99,,,-99.99,WSDL version 420,2013-03-31 11:05:00,
2013-03-31 07:13:00,32.2,22.5,29.09,SW,225,0.0,1.1,67,-99.99,,,-99.99,WSDL version 420,2013-03-31 11:13:00,
2013-03-31 07:19:00,32.6,23.2,29.09,SW,225,0.0,1.1,68,-99.99,,,-99.99,WSDL version 420,2013-03-31 11:19:00,
2013-03-31 07:25:00,32.8,23.4,29.09,SW,225,0.0,0.9,68,-99.99,,,-99.99,WSDL version 420,2013-03-31 11:25:00,
2013-03-31 07:31:00,33.0,23.5,29.09,SW,225,0.0,0.9,68,-99.99,,,-99.99,WSDL version 420,2013-03-31 11:31:00,
2013-03-31 07:38:00,33.4,23.8,29.09,SW,225,0.0,3.6,68,-99.99,,,-99.99,WSDL version 420,2013-03-31 11:38:00,
2013-03-31 07:44:00,33.6,23.8,29.09,WSW,244,0.7,1.6,67,-99.99,,,-99.99,WSDL version 420,2013-03-31 11:44:00,
2013-03-31 07:52:00,34.2,24.4,29.09,SW,225,0.2,2.2,67,-99.99,,,-99.99,WSDL version 420,2013-03-31 11:52:00,
2013-03-31 07:58:00,34.4,24.3,29.09,SW,225,0.3,1.6,66,-99.99,,,-99.99,WSDL version 420,2013-03-31 11:58:00,
2013-03-31 08:04:00,34.9,24.4,-100.00,SW,236,0.0,1.3,65,-99.99,,,-99.99,WSDL version 420,2013-03-31 12:04:00,
2013-03-31 08:12:00,35.4,24.6,29.09,WSW,248,0.0,2.0,64,-99.99,,,-99.99,WSDL version 420,2013-03-31 12:12:00,
2013-03-31 08:17:00,35.8,24.6,29.06,WSW,248,0.3,2.0,63,-99.99,,,-99.99,WSDL version 420,2013-03-31 12:17:00,
2013-03-31 08:23:00,36.3,24.9,29.06,SW,225,0.9,1.6,63,-99.99,,,-99.99,WSDL version 420,2013-03-31 12:23:00,
2013-03-31 08:29:00,36.8,25.0,-100.00,WSW,248,0.9,1.6,62,-99.99,,,-99.99,WSDL version 420,2013-03-31 12:29:00,
2013-03-31 08:41:00,37.8,24.7,29.09,SW,225,0.0,1.3,59,-99.99,,,-99.99,WSDL version 420,2013-03-31 12:41:00,
2013-03-31 08:47:00,38.3,24.8,29.09,SW,229,0.1,1.6,58,-99.99,,,-99.99,WSDL version 420,2013-03-31 12:47:00,
2013-03-31 08:54:00,38.7,24.7,29.09,SSW,203,0.4,1.6,56,-99.99,,,-99.99,WSDL version 420,2013-03-31 12:54:00,
2013-03-31 09:00:00,39.1,24.6,29.09,SSW,203,0.0,1.6,55,-99.99,,,-99.99,WSDL version 420,2013-03-31 13:00:00,
2013-03-31 09:06:00,39.8,24.4,-100.00,SW,218,1.2,3.4,53,-99.99,,,-99.99,WSDL version 420,2013-03-31 13:06:00,
2013-03-31 09:12:00,40.2,24.0,29.06,SW,236,1.1,3.4,52,-99.99,,,-99.99,WSDL version 420,2013-03-31 13:12:00,
2013-03-31 09:18:00,40.8,24.1,29.06,SW,225,0.8,2.9,51,-99.99,,,-99.99,WSDL version 420,2013-03-31 13:18:00,
2013-03-31 09:24:00,41.5,23.8,29.06,WSW,248,1.3,2.5,49,-99.99,,,-99.99,WSDL version 420,2013-03-31 13:24:00,
2013-03-31 09:29:00,42.1,22.8,-100.00,WSW,248,1.8,3.1,46,-99.99,,,-99.99,WSDL version 420,2013-03-31 13:29:00,
2013-03-31 09:35:00,42.6,23.6,-100.00,WSW,248,0.4,3.1,47,-99.99,,,-99.99,WSDL version 420,2013-03-31 13:35:00,
2013-03-31 09:41:00,43.2,23.8,29.03,WSW,248,0.3,2.0,46,-99.99,,,-99.99,WSDL version 420,2013-03-31 13:41:00,
2013-03-31 09:48:00,43.5,23.8,-100.00,WSW,248,0.5,2.9,45,-99.99,,,-99.99,WSDL version 420,2013-03-31 13:48:00,
2013-03-31 09:54:00,44.1,23.6,29.03,SW,229,0.6,2.0,44,-99.99,,,-99.99,WSDL version 420,2013-03-31 13:54:00,
2013-03-31 10:01:00,45.1,23.3,29.03,WSW,248,1.6,2.9,41,-99.99,,,-99.99,WSDL version 420,2013-03-31 14:01:00,
2013-03-31 10:07:00,45.9,23.4,29.03,WSW,241,2.0,2.9,40,-99.99,,,-99.99,WSDL version 420,2013-03-31 14:07:00,
2013-03-31 10:14:00,46.8,23.1,29.03,SSW,212,1.9,2.9,39,-99.99,,,-99.99,WSDL version 420,2013-03-31 14:14:00,
2013-03-31 10:20:00,47.4,23.3,-100.00,SW,225,2.7,3.6,38,-99.99,,,-99.99,WSDL version 420,2013-03-31 14:20:00,
2013-03-31 10:26:00,47.9,23.6,29.03,SW,221,2.2,3.6,38,-99.99,,,-99.99,WSDL version 420,2013-03-31 14:26:00,
2013-03-31 10:33:00,48.4,23.8,29.03,SW,229,1.9,3.6,37,-99.99,,,-99.99,WSDL version 420,2013-03-31 14:33:00,
2013-03-31 10:38:00,48.9,23.7,29.03,SSW,210,2.6,4.7,37,-99.99,,,-99.99,WSDL version 420,2013-03-31 14:38:00,
2013-03-31 10:46:00,49.6,24.4,29.00,SW,233,3.0,6.0,37,-99.99,,,-99.99,WSDL version 420,2013-03-31 14:46:00,
2013-03-31 10:51:00,50.0,24.8,29.00,SW,216,2.6,6.0,37,-99.99,,,-99.99,WSDL version 420,2013-03-31 14:51:00,
2013-03-31 10:57:00,50.5,25.1,29.00,SW,235,2.4,4.3,37,-99.99,,,-99.99,WSDL version 420,2013-03-31 14:57:00,
2013-03-31 11:05:00,51.1,25.1,29.00,South,174,2.8,6.0,36,-99.99,,,-99.99,WSDL version 420,2013-03-31 15:05:00,
2013-03-31 11:11:00,51.4,25.4,29.00,SW,225,2.5,6.0,36,-99.99,,,-99.99,WSDL version 420,2013-03-31 15:11:00,
2013-03-31 11:17:00,51.9,25.8,-100.00,South,188,3.5,6.0,36,-99.99,,,-99.99,WSDL version 420,2013-03-31 15:17:00,
2013-03-31 11:23:00,52.3,26.1,-100.00,South,174,2.4,6.3,36,-99.99,,,-99.99,WSDL version 420,2013-03-31 15:23:00,
2013-03-31 11:29:00,53.1,26.2,29.00,WSW,239,3.4,6.3,35,-99.99,,,-99.99,WSDL version 420,2013-03-31 15:29:00,
2013-03-31 11:35:00,53.4,27.2,29.00,SW,218,2.8,6.3,36,-99.99,,,-99.99,WSDL version 420,2013-03-31 15:35:00,
2013-03-31 11:41:00,53.8,26.8,29.00,SW,225,2.7,4.3,35,-99.99,,,-99.99,WSDL version 420,2013-03-31 15:41:00,
2013-03-31 11:47:00,54.2,26.6,29.00,WSW,238,3.5,4.7,34,-99.99,,,-99.99,WSDL version 420,2013-03-31 15:47:00,
2013-03-31 11:57:00,55.0,27.5,29.00,SSW,211,2.9,5.6,35,-99.99,,,-99.99,WSDL version 420,2013-03-31 15:57:00,
2013-03-31 12:03:00,55.3,27.1,28.97,WSW,244,3.6,7.4,33,-99.99,,,-99.99,WSDL version 420,2013-03-31 16:03:00,
2013-03-31 12:09:00,55.9,27.3,28.97,SW,218,3.0,7.4,33,-99.99,,,-99.99,WSDL version 420,2013-03-31 16:09:00,
2013-03-31 12:14:00,56.3,27.6,28.97,WSW,239,3.7,6.0,33,-99.99,,,-99.99,WSDL version 420,2013-03-31 16:14:00,
2013-03-31 12:23:00,56.1,26.7,-100.00,SSW,195,3.4,7.8,32,-99.99,,,-99.99,WSDL version 420,2013-03-31 16:23:00,
2013-03-31 12:29:00,56.3,27.3,-100.00,SW,214,4.0,8.7,33,-99.99,,,-99.99,WSDL version 420,2013-03-31 16:29:00,
2013-03-31 12:37:00,56.7,27.5,28.97,WSW,245,3.6,8.1,32,-99.99,,,-99.99,WSDL version 420,2013-03-31 16:37:00,
2013-03-31 12:43:00,56.5,27.1,28.94,WSW,252,4.3,8.1,32,-99.99,,,-99.99,WSDL version 420,2013-03-31 16:43:00,
2013-03-31 12:49:00,56.0,26.9,28.94,SSW,206,3.2,7.2,33,-99.99,,,-99.99,WSDL version 420,2013-03-31 16:49:00,
2013-03-31 12:55:00,55.8,27.1,28.94,West,259,3.7,7.2,33,-99.99,,,-99.99,WSDL version 420,2013-03-31 16:55:00,
2013-03-31 13:03:00,55.2,26.6,29.00,WSW,241,4.2,10.7,33,-99.99,,,-99.99,WSDL version 420,2013-03-31 17:03:00,
2013-03-31 13:09:00,55.1,26.9,29.00,SW,231,3.8,10.1,33,-99.99,,,-99.99,WSDL version 420,2013-03-31 17:09:00,
2013-03-31 13:15:00,55.1,27.3,28.97,SW,218,4.1,10.1,34,-99.99,,,-99.99,WSDL version 420,2013-03-31 17:15:00,
2013-03-31 13:23:00,54.8,27.2,28.97,SSW,203,3.1,5.6,34,-99.99,,,-99.99,WSDL version 420,2013-03-31 17:23:00,
2013-03-31 13:31:00,54.5,27.4,28.97,SW,231,3.8,7.8,35,-99.99,,,-99.99,WSDL version 420,2013-03-31 17:31:00,
2013-03-31 13:37:00,54.2,27.2,28.97,SSW,209,4.2,7.8,35,-99.99,,,-99.99,WSDL version 420,2013-03-31 17:37:00,
2013-03-31 13:44:00,53.8,27.3,-100.00,WSW,248,3.7,6.5,36,-99.99,,,-99.99,WSDL version 420,2013-03-31 17:44:00,
2013-03-31 13:49:00,53.6,27.3,28.94,SW,221,3.7,6.5,36,-99.99,,,-99.99,WSDL version 420,2013-03-31 17:49:00,
2013-03-31 13:55:00,53.8,27.5,28.94,SW,229,4.5,6.3,36,-99.99,,,-99.99,WSDL version 420,2013-03-31 17:55:00,
2013-03-31 14:01:00,53.6,27.3,28.94,WSW,253,3.1,6.3,36,-99.99,,,-99.99,WSDL version 420,2013-03-31 18:01:00,
2013-03-31 14:09:00,53.3,27.7,28.94,WSW,248,3.8,7.8,37,-99.99,,,-99.99,WSDL version 420,2013-03-31 18:09:00,
2013-03-31 14:15:00,53.2,27.7,28.94,WSW,244,3.9,5.6,38,-99.99,,,-99.99,WSDL version 420,2013-03-31 18:15:00,
2013-03-31 14:21:00,52.8,28.2,28.94,SW,233,3.7,7.8,39,-99.99,,,-99.99,WSDL version 420,2013-03-31 18:21:00,
2013-03-31 14:27:00,52.2,28.8,28.94,SW,231,3.4,7.8,41,-99.99,,,-99.99,WSDL version 420,2013-03-31 18:27:00,
2013-03-31 14:34:00,51.4,30.3,28.94,SW,233,2.9,5.6,44,-99.99,,,-99.99,WSDL version 420,2013-03-31 18:34:00,
2013-03-31 14:47:00,50.7,32.0,28.94,SW,218,2.5,5.6,49,-99.99,,,-99.99,WSDL version 420,2013-03-31 18:47:00,
2013-03-31 14:52:00,50.4,32.8,28.94,SW,228,3.3,4.9,51,-99.99,,,-99.99,WSDL version 420,2013-03-31 18:52:00,
2013-03-31 15:00:00,49.3,33.4,-100.00,SW,219,2.6,5.4,54,-99.99,,,-99.99,WSDL version 420,2013-03-31 19:00:00,
2013-03-31 15:12:00,48.4,35.2,28.94,WSW,244,3.1,6.5,60,-99.99,,,-99.99,WSDL version 420,2013-03-31 19:12:00,
2013-03-31 15:18:00,48.0,36.0,28.94,SW,234,2.4,6.5,63,-99.99,,,-99.99,WSDL version 420,2013-03-31 19:18:00,
2013-03-31 15:25:00,47.7,36.9,28.94,SSW,203,3.3,6.5,66,-99.99,,,-99.99,WSDL version 420,2013-03-31 19:25:00,
2013-03-31 15:33:00,47.2,37.4,28.94,South,185,3.3,6.5,69,-99.99,,,-99.99,WSDL version 420,2013-03-31 19:33:00,
2013-03-31 15:45:00,46.2,37.2,-100.00,WSW,239,2.0,4.0,71,-99.99,,,-99.99,WSDL version 420,2013-03-31 19:45:00,
2013-03-31 15:51:00,46.1,37.2,28.94,WSW,248,1.9,4.0,71,-99.99,,,-99.99,WSDL version 420,2013-03-31 19:51:00,
2013-03-31 16:00:00,45.9,37.7,-100.00,WSW,248,1.2,4.0,73,-99.99,,,-99.99,WSDL version 420,2013-03-31 20:00:00,
2013-03-31 16:08:00,45.6,37.5,28.91,WSW,248,0.2,2.7,73,-99.99,,,-99.99,WSDL version 420,2013-03-31 20:08:00,
2013-03-31 16:14:00,45.5,37.9,28.91,SW,236,2.0,2.7,75,-99.99,,,-99.99,WSDL version 420,2013-03-31 20:14:00,
2013-03-31 16:19:00,45.3,38.0,28.91,SW,228,0.9,2.5,75,-99.99,,,-99.99,WSDL version 420,2013-03-31 20:19:00,
2013-03-31 16:27:00,45.0,37.8,28.91,WSW,248,1.5,2.2,76,-99.99,,,-99.99,WSDL version 420,2013-03-31 20:27:00,
2013-03-31 16:33:00,44.8,37.9,28.91,SW,214,1.3,6.5,77,-99.99,,,-99.99,WSDL version 420,2013-03-31 20:33:00,
2013-03-31 16:39:00,44.9,38.5,28.91,SW,235,2.4,6.5,79,-99.99,,,-99.99,WSDL version 420,2013-03-31 20:39:00,
2013-03-31 16:45:00,44.7,38.4,-100.00,SW,225,2.7,4.7,78,-99.99,,,-99.99,WSDL version 420,2013-03-31 20:45:00,
2013-03-31 16:51:00,44.5,38.1,28.91,SW,235,2.8,3.8,78,-99.99,,,-99.99,WSDL version 420,2013-03-31 20:51:00,
2013-03-31 16:57:00,44.2,38.1,28.91,SW,235,2.7,4.3,79,-99.99,,,-99.99,WSDL version 420,2013-03-31 20:57:00,
2013-03-31 17:03:00,44.1,37.7,28.91,SW,225,2.1,4.0,78,-99.99,,,-99.99,WSDL version 420,2013-03-31 21:03:00,
2013-03-31 17:09:00,44.1,38.0,28.91,WSW,248,2.1,4.3,79,-99.99,,,-99.99,WSDL version 420,2013-03-31 21:09:00,
2013-03-31 17:16:00,43.8,37.5,28.88,WSW,248,1.6,3.8,78,-99.99,,,-99.99,WSDL version 420,2013-03-31 21:16:00,
2013-03-31 17:26:00,43.7,37.6,28.88,WSW,248,1.5,3.1,79,-99.99,,,-99.99,WSDL version 420,2013-03-31 21:26:00,
2013-03-31 17:33:00,43.5,37.4,28.94,WSW,248,1.2,3.1,79,-99.99,,,-99.99,WSDL version 420,2013-03-31 21:33:00,
2013-03-31 17:39:00,43.5,37.4,28.94,WSW,248,1.3,2.9,79,-99.99,,,-99.99,WSDL version 420,2013-03-31 21:39:00,
2013-03-31 17:45:00,43.4,37.4,28.91,WSW,244,0.6,2.5,80,-99.99,,,-99.99,WSDL version 420,2013-03-31 21:45:00,
2013-03-31 17:50:00,43.4,37.7,28.91,SW,214,0.3,2.5,80,-99.99,,,-99.99,WSDL version 420,2013-03-31 21:50:00,
2013-03-31 17:56:00,43.5,38.1,-100.00,WSW,248,0.5,2.5,81,-99.99,,,-99.99,WSDL version 420,2013-03-31 21:56:00,
2013-03-31 18:03:00,43.5,38.1,-100.00,WSW,248,1.2,2.5,81,-99.99,,,-99.99,WSDL version 420,2013-03-31 22:03:00,
2013-03-31 18:08:00,43.5,38.1,28.91,WSW,248,0.0,2.5,81,-99.99,,,-99.99,WSDL version 420,2013-03-31 22:08:00,
2013-03-31 18:14:00,43.5,38.1,28.91,SW,225,0.0,1.3,81,-99.99,,,-99.99,WSDL version 420,2013-03-31 22:14:00,
2013-03-31 18:20:00,43.5,38.1,28.91,SW,225,0.0,1.3,81,-99.99,,,-99.99,WSDL version 420,2013-03-31 22:20:00,
2013-03-31 18:26:00,43.3,37.9,28.91,SSW,203,0.0,0.0,81,-99.99,,,-99.99,WSDL version 420,2013-03-31 22:26:00,
2013-03-31 18:31:00,43.3,37.9,28.88,SSW,203,0.0,0.0,81,-99.99,,,-99.99,WSDL version 420,2013-03-31 22:31:00,
2013-03-31 18:37:00,43.3,37.9,28.88,SSW,203,0.0,0.0,81,-99.99,,,-99.99,WSDL version 420,2013-03-31 22:37:00,
2013-03-31 18:43:00,43.2,37.7,28.88,SSW,203,0.0,0.0,80,-99.99,,,-99.99,WSDL version 420,2013-03-31 22:43:00,
2013-03-31 18:49:00,43.0,37.6,28.88,SSW,209,0.3,2.0,81,-99.99,,,-99.99,WSDL version 420,2013-03-31 22:49:00,
2013-03-31 18:56:00,43.0,37.6,-100.00,SW,225,0.0,2.2,81,-99.99,,,-99.99,WSDL version 420,2013-03-31 22:56:00,
2013-03-31 19:02:00,43.0,37.7,28.88,SW,214,0.0,2.7,82,-99.99,,,-99.99,WSDL version 420,2013-03-31 23:02:00,
2013-03-31 19:08:00,42.8,37.9,28.88,SSW,203,0.7,2.7,83,-99.99,,,-99.99,WSDL version 420,2013-03-31 23:08:00,
2013-03-31 19:15:00,42.8,38.1,28.88,SW,225,0.4,2.5,83,-99.99,,,-99.99,WSDL version 420,2013-03-31 23:15:00,
2013-03-31 19:20:00,42.8,38.1,28.88,SSW,206,0.4,2.5,83,-99.99,,,-99.99,WSDL version 420,2013-03-31 23:20:00,
2013-03-31 19:27:00,42.7,38.2,28.88,SW,225,0.0,1.6,84,-99.99,,,-99.99,WSDL version 420,2013-03-31 23:27:00,
2013-03-31 19:33:00,42.6,38.3,28.88,SW,225,0.0,1.1,84,-99.99,,,-99.99,WSDL version 420,2013-03-31 23:33:00,
2013-03-31 19:39:00,42.4,38.1,28.88,SW,225,0.0,0.0,84,-99.99,,,-99.99,WSDL version 420,2013-03-31 23:39:00,
2013-03-31 19:45:00,42.3,38.0,28.88,SW,225,0.2,2.0,84,-99.99,,,-99.99,WSDL version 420,2013-03-31 23:45:00,
2013-03-31 19:51:00,42.3,37.9,28.88,SW,225,0.0,2.0,84,-99.99,,,-99.99,WSDL version 420,2013-03-31 23:51:00,
2013-03-31 19:57:00,42.1,37.7,28.88,SW,225,0.0,0.0,84,-99.99,,,-99.99,WSDL version 420,2013-03-31 23:57:00,
2013-03-31 20:03:00,42.1,37.7,28.88,WSW,248,0.1,1.3,84,-99.99,,,-99.99,WSDL version 420,2013-04-01 00:03:00,
2013-03-31 20:09:00,42.1,37.7,28.88,WSW,248,0.1,1.6,84,-99.99,,,-99.99,WSDL version 420,2013-04-01 00:09:00,
2013-03-31 20:15:00,42.0,37.7,28.88,WSW,248,0.0,1.3,84,-99.99,,,-99.99,WSDL version 420,2013-04-01 00:15:00,
2013-03-31 20:21:00,42.0,37.8,28.88,SW,214,1.0,2.2,86,-99.99,,,-99.99,WSDL version 420,2013-04-01 00:21:00,
2013-03-31 20:27:00,42.0,38.0,28.88,WSW,239,1.1,2.7,86,-99.99,,,-99.99,WSDL version 420,2013-04-01 00:27:00,
2013-03-31 20:33:00,42.1,38.4,28.88,SW,225,0.0,2.7,87,-99.99,,,-99.99,WSDL version 420,2013-04-01 00:33:00,
2013-03-31 20:42:00,41.9,38.2,28.88,WSW,248,0.0,1.3,87,-99.99,,,-99.99,WSDL version 420,2013-04-01 00:42:00,
2013-03-31 20:48:00,41.8,38.2,28.88,WSW,248,0.0,1.1,87,-99.99,,,-99.99,WSDL version 420,2013-04-01 00:48:00,
2013-03-31 20:54:00,41.7,38.0,28.88,WSW,248,0.1,2.0,87,-99.99,,,-99.99,WSDL version 420,2013-04-01 00:54:00,
2013-03-31 21:00:00,41.7,38.0,28.88,WSW,248,0.0,2.0,87,-99.99,,,-99.99,WSDL version 420,2013-04-01 01:00:00,
2013-03-31 21:06:00,41.7,38.0,28.88,SW,225,0.0,1.1,87,-99.99,,,-99.99,WSDL version 420,2013-04-01 01:06:00,
2013-03-31 21:12:00,41.7,38.0,28.88,SW,225,0.0,1.1,87,-99.99,,,-99.99,WSDL version 420,2013-04-01 01:12:00,
2013-03-31 21:18:00,41.7,38.0,28.88,SW,225,0.0,0.0,87,-99.99,,,-99.99,WSDL version 420,2013-04-01 01:18:00,
2013-03-31 21:24:00,41.7,38.0,28.88,SW,225,0.0,0.0,87,-99.99,,,-99.99,WSDL version 420,2013-04-01 01:24:00,
2013-03-31 21:33:00,41.7,38.0,28.88,WSW,248,0.0,1.6,87,-99.99,,,-99.99,WSDL version 420,2013-04-01 01:33:00,
2013-03-31 21:38:00,41.7,38.4,-100.00,WSW,248,0.0,1.3,88,-99.99,,,-99.99,WSDL version 420,2013-04-01 01:38:00,
2013-03-31 21:44:00,41.5,38.2,28.88,WSW,248,0.0,0.0,88,-99.99,,,-99.99,WSDL version 420,2013-04-01 01:44:00,
2013-03-31 21:50:00,41.5,38.2,-100.00,WSW,248,0.0,0.0,88,-99.99,,,-99.99,WSDL version 420,2013-04-01 01:50:00,
2013-03-31 21:57:00,41.4,38.0,28.88,WSW,248,0.0,0.0,88,-99.99,,,-99.99,WSDL version 420,2013-04-01 01:57:00,
2013-03-31 22:03:00,41.2,37.7,28.88,WSW,248,0.0,0.9,87,-99.99,,,-99.99,WSDL version 420,2013-04-01 02:03:00,
2013-03-31 22:08:00,41.1,37.4,28.88,SW,225,0.0,0.9,87,-99.99,,,-99.99,WSDL version 420,2013-04-01 02:08:00,
2013-03-31 22:14:00,40.8,37.4,28.85,WSW,248,0.0,1.3,88,-99.99,,,-99.99,WSDL version 420,2013-04-01 02:14:00,
2013-03-31 22:20:00,40.5,37.0,28.85,WSW,248,0.0,2.2,87,-99.99,,,-99.99,WSDL version 420,2013-04-01 02:20:00,
2013-03-31 22:26:00,40.2,36.8,28.85,WSW,248,0.0,1.3,88,-99.99,,,-99.99,WSDL version 420,2013-04-01 02:26:00,
2013-03-31 22:32:00,39.9,36.6,28.85,WSW,248,0.0,2.0,88,-99.99,,,-99.99,WSDL version 420,2013-04-01 02:32:00,
2013-03-31 22:38:00,39.7,36.4,28.85,WSW,248,0.0,2.0,88,-99.99,,,-99.99,WSDL version 420,2013-04-01 02:38:00,
2013-03-31 22:44:00,39.3,35.9,28.85,WSW,248,0.0,0.0,88,-99.99,,,-99.99,WSDL version 420,2013-04-01 02:44:00,
2013-03-31 22:50:00,39.1,35.9,28.85,WSW,248,0.0,0.0,89,-99.99,,,-99.99,WSDL version 420,2013-04-01 02:50:00,
2013-03-31 22:57:00,39.0,36.0,28.85,WSW,248,0.0,0.0,89,-99.99,,,-99.99,WSDL version 420,2013-04-01 02:57:00,
2013-03-31 23:03:00,39.0,36.0,28.85,WSW,248,0.0,0.0,89,-99.99,,,-99.99,WSDL version 420,2013-04-01 03:03:00,
2013-03-31 23:09:00,39.0,36.0,28.85,WSW,248,0.0,0.0,89,-99.99,,,-99.99,WSDL version 420,2013-04-01 03:09:00,
2013-03-31 23:15:00,39.0,36.3,-100.00,SW,228,0.0,2.0,90,-99.99,,,-99.99,WSDL version 420,2013-04-01 03:15:00,
2013-03-31 23:24:00,39.4,36.4,28.85,SSW,203,0.7,2.0,89,-99.99,,,-99.99,WSDL version 420,2013-04-01 03:24:00,
2013-03-31 23:30:00,39.4,36.7,28.82,SSW,203,0.0,2.9,90,-99.99,,,-99.99,WSDL version 420,2013-04-01 03:30:00,
2013-03-31 23:39:00,39.6,36.9,28.82,SSW,203,0.4,2.0,90,-99.99,,,-99.99,WSDL version 420,2013-04-01 03:39:00,
2013-03-31 23:45:00,39.5,36.8,28.85,SSW,203,0.0,2.2,90,-99.99,,,-99.99,WSDL version 420,2013-04-01 03:45:00,
2013-03-31 23:50:00,39.4,36.7,28.85,SSW,203,0.0,2.2,90,-99.99,,,-99.99,WSDL version 420,2013-04-01 03:50:00,
2013-03-31 23:56:00,39.4,36.7,28.85,SSW,203,0.0,0.0,90,-99.99,,,-99.99,WSDL version 420,2013-04-01 03:56:00,